Weather History for Goshen, IN

Change the Weather History Date:

Wednesday, April 18, 2012

  Actual Average Record
Temperature  
Mean Temperature 50 °F -  
Max Temperature 69 °F 62 °F 86 °F (2004)
Min Temperature 33 °F 40 °F 22 °F (1983)
Degree Days  
Heating Degree Days 14    
Moisture  
Dew Point 36 °F    
Average Humidity 57    
Maximum Humidity 89    
Minimum Humidity 35    
Precipitation  
Precipitation 0.00 in - - ()
Sea Level Pressure  
Sea Level Pressure 30.17 in    
Wind  
Wind Speed 5 mph (SSE)    
Max Wind Speed 15 mph    
Max Gust Speed 20 mph    
Visibility 10 miles    
Events      
Averages and records for this station are not official NWS values.
T = Trace of Precipitation, MM = Missing Value Source: NWS Daily Summary

Daily Weather History Graph

Daily Weather History Graph

Search for Another Location

Airport:

Trip Planner

Search our weather history database for the weather conditions in past years. The results will help you decide how hot, cold, wet, or windy it might be!

Date:

Astronomy

Apr. 18, 2012 Rise Set
Actual Time 6:57 AM EDT 8:27 PM EDT
Civil Twilight 6:28 AM EDT 8:56 PM EDT
Nautical Twilight 5:53 AM EDT 9:31 PM EDT
Astronomical Twilight 5:16 AM EDT 10:08 PM EDT
Moon 5:24 AM EDT (4/18) 6:16 PM EDT (4/18)
Length of Visible Light 14h 27m
Length of Day
13h 29m
Waning Crescent, 6% of the Moon is Illuminated
Apr 18
Waning Crescent
Apr 21
New
Apr 29
First Quarter
May 5
Full
May 12
Last Quarter

Hourly Weather History & Observations

Time (EDT) Temp. Windchill Dew Point Humidity Pressure Visibility Wind Dir Wind Speed Gust Speed Precip Events Conditions
12:53 AM 43.0 °F - 32.0 °F 65% 30.33 in 10.0 mi Calm Calm - N/A   Clear
1:53 AM 39.0 °F - 32.0 °F 76% 30.32 in 10.0 mi Calm Calm - N/A   Clear
2:53 AM 36.0 °F - 32.0 °F 86% 30.31 in 10.0 mi Calm Calm - N/A   Clear
3:53 AM 34.0 °F - 30.9 °F 89% 30.31 in 10.0 mi Calm Calm - N/A   Clear
4:53 AM 33.1 °F 28.7 °F 30.0 °F 89% 30.30 in 10.0 mi North 4.6 mph - N/A   Clear
5:53 AM 35.1 °F - 30.0 °F 82% 30.28 in 10.0 mi Calm Calm - N/A   Clear
6:53 AM 34.0 °F 31.0 °F 28.9 °F 82% 30.27 in 10.0 mi East 3.5 mph - N/A   Clear
7:53 AM 36.0 °F 33.3 °F 30.9 °F 82% 30.27 in 10.0 mi ESE 3.5 mph - N/A   Clear
8:53 AM 45.0 °F 40.1 °F 37.0 °F 74% 30.27 in 10.0 mi SE 9.2 mph - N/A   Clear
9:53 AM 51.1 °F - 39.0 °F 63% 30.26 in 10.0 mi SE 8.1 mph - N/A   Clear
10:53 AM 55.0 °F - 37.9 °F 53% 30.25 in 10.0 mi SSE 9.2 mph - N/A   Clear
11:53 AM 57.9 °F - 37.0 °F 46% 30.23 in 10.0 mi SSW 10.4 mph - N/A   Clear
12:53 PM 61.0 °F - 37.9 °F 42% 30.20 in 10.0 mi South 10.4 mph - N/A   Clear
1:53 PM 62.1 °F - 39.0 °F 43% 30.16 in 10.0 mi SSE 6.9 mph - N/A   Clear
2:53 PM 64.9 °F - 39.0 °F 39% 30.12 in 10.0 mi South 15.0 mph - N/A   Clear
3:53 PM 66.0 °F - 39.0 °F 37% 30.08 in 10.0 mi SSE 9.2 mph 19.6 mph N/A   Clear
4:53 PM 68.0 °F - 39.9 °F 36% 30.05 in 10.0 mi SSE 13.8 mph - N/A   Clear
5:53 PM 68.0 °F - 39.0 °F 35% 30.04 in 10.0 mi SSW 15.0 mph - N/A   Mostly Cloudy
6:53 PM 66.0 °F - 39.0 °F 37% 30.03 in 10.0 mi SW 12.7 mph - N/A   Mostly Cloudy
7:53 PM 66.0 °F - 39.0 °F 37% 30.01 in 10.0 mi South 12.7 mph - N/A   Partly Cloudy
8:53 PM 63.0 °F - 39.9 °F 43% 30.00 in 10.0 mi South 9.2 mph - N/A   Mostly Cloudy
9:53 PM 60.1 °F - 39.9 °F 47% 30.01 in 10.0 mi South 8.1 mph - N/A   Partly Cloudy
10:53 PM 60.1 °F - 39.9 °F 47% 30.00 in 10.0 mi South 9.2 mph - N/A   Mostly Cloudy
11:53 PM 60.1 °F - 41.0 °F 49% 30.00 in 10.0 mi SSW 10.4 mph - N/A   Mostly Cloudy